Location: Newark
(0.5300°S, 127.4800°E)
Time: 09:48:58
(UTC+00:00)

A-11 Canister half - Pass Details

Date: 23 September 2019
Orbit: 1514 x 1686 km, 47.2° (Epoch: 18 October)

Event Time Altitude Azimuth Distance (km) Brightness Sun altitude
Rises 08:30:55 0° 337° (NNW) 4,684 11.9 12.9°
Reaches altitude 10° 08:34:14 10° 345° (NNW) 3,722 11.3 12.1°
Maximum altitude 08:42:49 39° 50° (NE) 2,228 9.6 9.9°
Drops below altitude 10° 08:51:41 10° 115° (ESE) 3,856 10.6 7.7°
Sets 08:55:08 0° 123° (ESE) 4,868 11.1 6.9°
